Location: Wald
(31.7579°N, 86.6655°W)
Time: 12:22:26
(UTC+00:00)

SPOT 3 Rocket - Pass Details

Date: 14 July 2020
Orbit: 779 x 795 km, 98.8° (Epoch: 09 August)

Event Time Altitude Azimuth Distance (km) Brightness Sun altitude
Exits shadow 01:51:51 12° 149° (SSE) 2,186 5.3 -11.5°
Maximum altitude 01:56:28 55° 74° (ENE) 950 3.8 -12.3°
Drops below altitude 10° 02:01:34 10° 357° (N) 2,367 6.6 -13.2°
Sets 02:03:56 0° 353° (N) 3,300 7.5 -13.6°
